Dewpoint
42 42 42 47 48 49 51 54 56 56 54 53 54 53 54 54 55 55 51 52 54 57 53 53 49 47 45 41 41 41 37 35 35 34 32 32 29 29 30 28 30 31 39 49 55
43 42 41 41 45 47 48 51 53 56 55 54 54 53 53 54 52 51 52 52 55 56 54 48 48 46 42 40 41 39 38 38 37 35 33 32 35 32 29 29 29 30 43 47 54
41 41 42 39 45 45 47 49 51 53 56 54 54 53 53 54 50 47 53 53 56 57 50 48 47 43 41 41 39 38 39 40 40 37 36 37 35 37 33 30 29 29 35 43 51
43 42 42 42 42 44 47 48 50 52 55 55 54 53 54 51 38 53 55 54 55 56 53 51 48 42 40 39 39 37 38 38 38 37 37 38 40 39 38 34 37 36 35 38 43
43 42 42 43 42 41 44 47 48 51 53 55 53 52 52 46 46 54 56 54 57 56 53 51 48 42 37 37 38 36 36 37 37 36 35 36 37 38 38 39 38 36 37 37 38
43 43 42 42 42 41 43 46 47 50 53 56 53 53 49 42 47 51 52 55 55 54 53 52 45 41 39 38 36 34 35 36 37 37 36 34 35 35 36 36 35 34 34 35 36
43 43 42 42 41 42 44 45 47 48 51 56 53 51 45 42 40 46 45 46 49 52 51 52 51 43 43 39 41 38 36 37 36 37 36 36 34 34 36 36 36 36 35 33 34
43 44 43 43 43 43 45 45 46 47 50 55 53 49 42 44 42 41 43 43 47 50 51 53 52 45 43 40 38 35 36 34 35 35 36 35 31 33 35 35 35 35 35 34 34
43 43 43 42 44 44 45 46 45 46 50 56 50 47 38 42 41 40 41 43 47 51 50 52 52 46 43 38 35 35 31 32 34 33 34 34 32 33 34 33 32 33 34 34 34
43 43 42 42 45 45 45 45 45 46 51 53 46 42 42 37 39 40 38 43 45 49 49 48 46 42 41 37 32 31 32 31 30 31 32 31 32 32 32 32 31 30 32 33 33
42 42 42 43 44 45 45 42 39 40 45 39 40 38 39 39 39 38 38 40 46 46 41 45 39 37 37 38 35 34 33 28 28 29 27 27 29 29 29 30 30 30 30 30 31
40 41 41 42 45 46 44 39 37 43 34 40 43 41 38 37 35 37 39 38 40 39 36 36 34 37 38 38 37 34 30 27 28 28 26 26 25 25 26 27 27 27 28 29 29
41 41 41 42 43 45 42 39 45 42 34 40 44 40 38 38 36 36 39 38 37 37 34 33 30 32 33 32 29 29 28 28 28 27 26 25 21 22 25 25 26 26 26 27 28
41 41 41 42 42 42 40 41 45 43 29 34 39 40 38 38 35 38 40 37 36 33 34 32 32 30 31 31 29 27 28 28 27 25 21 27 20 24 20 20 21 23 25 25 26
39 41 42 43 42 41 40 45 43 39 18 36 39 41 39 38 36 36 38 36 34 34 34 31 30 30 27 29 30 28 29 28 28 27 26 25 22 22 24 19 19 20 21 24 25
39 41 44 43 43 42 45 43 40 24 17 33 39 37 37 36 35 36 36 36 34 31 32 30 31 30 31 29 29 29 28 28 28 26 21 23 22 16 18 16 18 18 20 22 23
43 45 46 46 40 44 44 39 19 19 31 31 34 35 35 34 33 34 34 32 29 27 27 29 30 30 31 29 29 29 26 22 21 22 16 22 23 21 19 19 18 17 18 21 21
45 47 45 46 46 45 41 33 15 20 26 36 35 34 34 34 33 34 33 30 32 30 27 24 22 29 30 30 28 28 26 21 15 19 19 21 20 19 20 21 20 19 19 19 20
48 44 43 47 46 43 35 26 22 31 35 34 34 30 32 32 34 32 31 29 30 31 26 25 25 30 30 30 29 28 26 28 24 22 19 17 14 15 18 22 23 22 21 22 20
44 40 41 46 43 38 33 30 31 36 35 33 29 30 28 30 31 30 30 30 29 30 31 31 24 30 31 30 30 26 28 24 23 12 12 17 16 13 17 20 23 24 25 25 24
38 35 43 43 41 36 29 31 34 36 34 30 28 29 27 30 30 30 29 30 28 29 30 29 26 29 30 28 27 28 27 25 25 24 19 17 17 19 20 23 23 26 27 29 27
38 32 43 45 32 34 31 32 39 35 35 30 27 28 27 29 29 27 26 28 28 28 28 29 28 25 27 29 30 29 27 25 21 17 23 22 21 23 24 25 26 29 33 31 29
35 37 42 42 30 31 33 35 37 36 33 31 28 27 29 28 25 28 29 30 31 29 29 29 28 22 24 26 29 28 28 27 26 27 23 21 20 23 24 27 31 36 37 36 35
37 31 36 40 38 34 35 35 36 36 33 31 28 27 28 28 30 30 31 31 31 32 33 30 28 24 21 25 27 25 26 27 27 26 24 23 23 25 27 33 36 37 37 37 36
40 34 36 32 35 37 37 35 33 32 34 33 29 29 29 28 27 27 31 31 32 33 30 30 26 28 28 29 28 27 27 28 27 28 27 25 27 31 34 38 38 38 39 39 40
37 36 37 36 37 35 37 36 33 33 33 31 31 32 31 30 30 27 30 31 30 32 30 31 26 30 25 26 27 27 29 29 29 30 32 33 33 36 38 39 38 41 41 39 39
40 41 39 34 33 31 31 32 33 33 33 34 32 34 33 35 35 35 35 32 33 32 29 31 28 27 22 27 29 28 30 30 30 33 34 33 35 39 39 40 38 38 37 39 41
Wind_Speed
21 22 20 21 21 21 22 20 18 17 13 12 10 10 10 10 10 10 15 11 17 15 1 2 7 10 9 4 6 3 6 13 17 17 12 20 13 5 2 5 5 3 6 11 16
22 22 22 21 21 24 23 22 21 22 15 12 11 10 10 8 11 18 12 15 23 20 11 10 11 11 6 6 4 10 15 10 6 16 14 13 5 8 4 5 1 2 7 12 15
22 23 21 23 22 22 23 23 21 22 17 13 10 10 8 5 6 10 23 24 22 10 11 9 9 12 12 10 8 5 9 11 18 17 4 6 9 7 5 2 9 8 11 9 17
24 24 23 23 23 21 23 22 22 23 20 13 10 10 6 5 7 3 7 24 17 11 10 10 9 7 12 14 11 11 8 20 19 20 9 5 7 8 3 5 14 7 6 2 13
24 24 24 24 23 24 24 23 22 21 23 15 11 10 3 8 8 1 7 21 14 12 14 15 12 9 12 11 16 14 15 18 16 15 7 6 8 8 13 14 20 22 12 6 9
24 25 24 24 23 23 23 23 21 18 20 16 12 9 4 13 6 9 10 11 12 15 14 14 7 10 9 10 13 7 8 6 8 13 10 13 13 8 3 10 20 20 24 13 14
25 24 24 24 24 23 22 22 20 21 22 14 15 10 9 13 3 11 7 12 16 14 15 18 7 6 3 3 1 4 1 8 11 12 11 10 16 17 17 18 23 25 25 24 17
25 24 23 23 22 21 20 19 20 20 21 20 19 10 7 7 9 5 6 5 3 5 17 7 1 3 1 2 1 3 2 7 12 17 17 14 22 7 19 17 24 30 27 27 28
23 23 22 22 20 19 21 18 19 21 16 11 12 8 8 3 14 11 10 8 7 11 10 13 5 2 2 7 2 2 6 11 11 14 10 21 6 21 17 23 17 24 25 26 29
23 21 22 19 18 21 24 23 21 16 5 5 1 6 8 8 10 11 9 9 9 15 7 4 3 4 5 7 11 9 11 7 12 6 12 13 20 15 18 18 23 21 19 20 24
22 20 24 15 16 22 14 8 3 3 7 4 10 4 5 13 16 15 10 9 11 8 6 5 4 10 15 15 10 9 9 8 12 10 9 14 20 20 22 23 28 26 23 27 27
24 24 23 18 17 15 12 4 4 4 3 20 8 19 14 16 11 14 8 10 12 11 8 5 6 9 11 15 16 12 10 10 12 7 10 20 31 27 28 31 28 33 25 27 26
24 23 21 20 23 9 8 11 12 8 2 10 5 21 15 6 6 20 14 11 14 12 11 9 1 11 9 6 6 3 4 6 8 14 9 15 22 16 14 22 28 29 29 24 26
23 23 19 21 12 6 10 6 12 11 2 9 9 10 8 7 6 11 11 12 5 14 12 6 7 4 7 8 4 3 4 0 3 5 6 9 13 11 18 21 15 20 23 26 25
23 21 22 18 15 5 2 16 13 4 1 12 10 13 9 1 20 12 5 1 12 10 8 8 6 9 5 4 6 3 7 7 6 6 9 4 8 10 13 8 13 8 17 22 25
24 26 27 15 6 12 6 14 4 4 5 5 8 15 12 19 4 15 5 2 3 5 10 5 4 3 3 3 4 8 7 3 2 4 6 14 13 6 5 4 2 2 8 7 15
27 29 28 8 3 8 20 7 8 3 5 8 10 18 19 9 11 17 12 8 6 9 8 2 4 2 2 7 5 6 6 1 1 3 10 2 10 13 13 15 18 17 14 7 11
29 30 11 4 6 18 7 3 4 5 5 7 17 22 7 16 14 9 12 9 4 2 10 8 3 12 8 5 6 7 6 5 5 5 5 7 11 9 17 21 15 9 4 4 8
22 7 4 6 7 9 4 1 1 3 5 10 18 14 7 6 10 9 7 10 6 7 4 6 2 10 10 4 6 4 8 3 2 2 4 8 9 11 11 12 15 10 11 16 16
3 5 6 6 6 6 3 4 3 6 13 18 7 5 11 10 10 9 13 13 7 14 5 1 5 9 7 4 7 5 7 3 1 4 7 9 9 17 7 7 13 16 17 19 14
5 4 1 6 3 1 4 4 3 10 21 2 7 9 14 8 9 8 17 14 12 16 9 3 2 3 5 8 13 9 6 4 1 5 5 7 8 6 6 2 7 10 11 13 18
3 4 4 4 2 1 3 4 6 8 8 1 6 12 16 11 11 5 12 2 15 15 12 4 4 5 12 6 15 12 9 10 6 4 8 5 12 18 19 8 24 27 29 17 19
4 4 3 4 4 4 5 4 3 8 2 3 5 5 22 10 9 4 7 5 11 12 15 10 4 4 3 2 3 9 14 15 14 3 17 9 13 5 16 30 28 30 28 24 23
1 3 3 2 4 1 4 5 3 7 12 8 19 20 15 8 10 11 6 3 5 6 9 12 5 5 8 4 3 6 11 17 20 9 18 26 33 36 31 30 31 23 20 17 20
3 3 2 2 2 3 2 1 6 6 7 6 15 15 13 7 13 9 9 6 4 3 4 4 5 6 10 11 9 12 15 16 22 28 17 39 33 34 31 30 26 7 13 17 18
2 3 6 3 4 4 3 2 9 6 7 13 17 16 15 6 1 14 10 6 5 4 5 3 2 1 11 12 13 15 16 18 20 25 27 33 38 23 19 26 16 12 15 17 20
5 3 2 4 1 1 3 3 2 3 12 11 11 13 13 8 9 9 8 8 12 12 10 8 5 1 5 6 11 9 11 18 10 10 11 15 17 21 24 18 12 14 17 19 15
Wind_Direction
341 342 333 329 327 323 329 329 325 265 253 257 259 268 273 280 286 269 244 223 217 232 231 236 203 232 252 247 236 201 228 225 226 240 245 292 309 309 124 145 99 52 125 155 156
335 336 337 326 327 327 320 323 326 325 249 246 250 260 269 281 273 259 241 234 230 232 221 222 205 216 218 216 234 203 217 234 233 242 270 276 356 315 180 184 224 82 110 139 150
331 330 329 329 326 324 315 315 316 311 260 237 242 252 266 282 266 248 217 220 210 184 197 227 249 204 210 232 229 204 222 226 264 264 297 294 299 342 3 165 227 222 174 198 170
327 326 326 328 321 319 323 315 309 316 304 233 229 242 249 235 219 293 220 200 203 179 187 227 249 224 199 217 237 242 232 240 259 270 282 286 309 317 319 270 318 278 278 116 225
322 323 323 323 318 317 314 314 304 304 306 224 218 229 208 216 248 249 176 190 166 187 205 213 223 221 187 211 241 233 246 252 254 278 278 280 274 273 279 303 303 306 317 291 262
321 319 318 317 315 312 308 310 306 299 300 220 205 211 225 227 192 163 147 148 189 202 217 221 219 203 212 249 223 201 229 259 288 304 321 270 259 261 267 285 290 294 290 266 264
320 318 320 319 316 311 306 307 302 301 302 237 192 190 235 224 178 165 192 184 195 197 205 225 232 176 213 239 290 101 326 318 291 287 274 322 272 240 247 258 261 269 273 278 248
324 321 316 317 315 315 310 304 299 301 301 285 177 186 243 221 224 160 213 217 182 183 205 160 284 113 114 272 103 84 38 276 253 248 243 204 253 249 244 243 248 252 252 260 268
321 317 316 320 319 318 321 314 294 289 289 213 163 173 228 161 181 188 203 178 164 100 103 119 97 105 23 136 87 195 242 239 285 257 214 196 250 243 247 247 262 246 243 245 250
322 324 320 327 327 328 321 313 287 279 227 158 187 148 242 202 179 176 201 202 156 121 110 117 112 132 173 157 204 202 224 244 251 282 202 224 241 254 269 270 272 264 254 241 241
327 323 320 324 326 325 334 330 358 178 204 186 181 228 206 176 155 172 182 189 142 147 153 179 150 199 193 197 230 247 297 291 289 305 305 267 267 264 266 262 264 265 255 254 252
330 326 321 319 324 328 320 259 267 64 269 248 245 220 123 133 134 172 167 150 157 172 135 133 213 210 207 213 230 258 270 287 302 337 350 315 296 287 266 259 245 250 247 245 248
327 320 321 321 322 322 265 236 131 67 37 211 233 196 155 159 148 175 167 141 170 162 155 159 144 220 226 259 221 282 297 293 286 331 338 343 292 273 276 253 248 247 246 242 240
324 320 323 326 320 328 286 249 141 109 262 171 190 200 177 163 117 172 178 135 154 173 171 199 222 138 185 228 172 245 24 86 26 8 277 36 292 285 274 274 272 245 237 236 235
329 328 321 319 303 284 311 118 127 102 103 151 151 141 163 223 131 192 198 37 172 165 152 206 181 185 179 193 154 169 94 63 30 1 336 261 240 283 263 266 263 275 250 240 238
327 321 315 296 225 249 136 145 148 109 250 135 143 161 139 148 109 152 139 64 87 165 167 120 67 117 193 123 104 120 71 45 45 54 275 243 209 289 237 190 99 28 32 234 239
322 319 318 277 228 173 152 147 105 234 299 121 142 145 135 141 125 153 154 147 145 139 174 65 151 135 50 142 109 112 83 95 255 228 241 116 212 252 266 276 280 289 287 205 162
319 317 305 255 189 142 157 231 119 217 238 119 138 127 115 124 147 148 146 160 234 113 134 174 196 180 182 163 171 169 157 173 238 233 290 306 231 257 244 262 297 248 300 295 246
324 320 0 105 126 153 95 23 99 296 152 128 118 140 128 120 131 151 163 171 205 209 142 147 242 153 158 168 130 164 203 142 300 278 266 247 288 295 313 51 53 45 17 355 344
36 350 29 138 71 81 316 21 356 230 124 136 113 152 158 151 131 152 168 192 202 215 222 22 120 151 153 130 211 158 153 143 175 275 270 279 265 249 301 5 14 12 6 352 352
43 59 23 106 63 35 281 15 317 168 153 167 146 138 145 158 150 159 181 163 181 190 197 129 97 83 121 200 189 194 209 208 179 202 249 291 258 257 194 68 15 342 316 315 310
30 71 323 338 53 308 322 324 27 172 266 228 113 125 154 146 150 135 182 182 174 168 191 129 118 181 218 219 205 197 198 203 193 222 241 268 270 273 283 9 333 322 318 294 281
57 53 353 13 33 3 324 305 318 25 25 109 133 111 144 124 148 119 109 24 160 159 163 147 168 143 134 41 162 207 213 209 231 286 255 263 267 196 315 322 316 306 300 289 273
102 85 317 311 82 62 333 353 28 0 48 65 115 123 133 172 137 161 119 62 82 94 156 151 166 200 190 127 121 212 215 210 204 230 261 246 272 285 293 303 304 310 328 322 294
350 44 62 315 324 287 116 40 358 44 11 46 135 150 127 109 108 116 102 104 65 108 92 121 207 262 276 274 263 246 248 239 231 242 247 274 278 286 297 299 296 276 327 307 319
82 26 341 302 148 85 36 301 63 35 21 82 92 73 88 87 126 155 145 147 174 160 138 115 220 358 289 268 249 253 254 244 244 253 249 263 275 288 299 305 315 335 315 282 285
347 337 353 323 66 22 16 171 77 33 31 53 94 89 75 49 67 71 86 146 164 156 171 169 191 204 273 316 325 282 249 226 224 219 236 279 293 306 308 318 14 355 339 311 288